Frenchville, ME

2:18 AM EDT on June 24, 2017 (GMT -0400)
Northern Aroostook Regional

Weather History for KFVE - May, 2013

Change the Weather History Date:

Wednesday, May 29, 2013

  Actual Average Record
Temperature  
Mean Temperature 56 °F 54 °F  
Max Temperature 70 °F 65 °F 78 °F (2002)
Min Temperature 42 °F 44 °F 38 °F (2012)
Degree Days  
Heating Degree Days 9    
Month to date heating degree days 398  
Since 1 July heating degree days 8879  
Cooling Degree Days 0    
Month to date cooling degree days 4  
Year to date cooling degree days 4  
Growing Degree Days 6 (Base 50)    
Moisture  
Dew Point 44 °F    
Average Humidity 70    
Maximum Humidity 100    
Minimum Humidity 29    
Precipitation  
Precipitation 0.20 in 0.11 in 0.79 in (2011)
Month to date precipitation 4.99 2.81  
Year to date precipitation 9.19 9.67  
Sea Level Pressure  
Sea Level Pressure 30.08 in    
Wind  
Wind Speed 12 mph (SE)    
Max Wind Speed 22 mph    
Max Gust Speed 31 mph    
Visibility 9 miles    
Events Rain    
T = Trace of Precipitation, MM = Missing Value Source: NWS Daily Summary

Daily Weather History Graph

Daily Weather History Graph

Search for Another Location

Airport or City:

Trip Planner

Search our weather history database for the weather conditions in past years. The results will help you decide how hot, cold, wet, or windy it might be!

Date:

Astronomy

May. 29, 2013 Rise Set
Actual Time 4:42 AM EDT 8:19 PM EDT
Civil Twilight 4:04 AM EDT 8:57 PM EDT
Nautical Twilight 3:12 AM EDT 9:49 PM EDT
Astronomical Twilight 2:02 AM EDT 11:00 PM EDT
Moon No Moon Rise 9:48 AM EDT (5/29)
Length of Visible Light 16h 53m
Length of Day
15h 36m
Waning Gibbous, 73% of the Moon is Illuminated
May 29
Waning Gibbous
May 31
Last Quarter
Jun 8
New
Jun 16
First Quarter
Jun 23
Full

Hourly Weather History & Observations

Time (EDT) Temp. Windchill Dew Point Humidity Pressure Visibility Wind Dir Wind Speed Gust Speed Precip Events Conditions
12:53 AM 50.0 °F - 30.9 °F 48% 30.19 in 10.0 mi East 5.8 mph - N/A   Clear
1:53 AM 46.9 °F - 33.1 °F 59% 30.18 in 10.0 mi East 8.1 mph - N/A   Clear
2:53 AM 46.0 °F 41.4 °F 34.0 °F 63% 30.18 in 10.0 mi East 9.2 mph - N/A   Clear
3:53 AM 44.1 °F 39.0 °F 35.1 °F 71% 30.18 in 10.0 mi East 9.2 mph - N/A   Clear
4:53 AM 42.1 °F 36.1 °F 35.1 °F 76% 30.20 in 10.0 mi East 10.4 mph - N/A   Clear
5:53 AM 43.0 °F 38.2 °F 36.0 °F 76% 30.21 in 10.0 mi East 8.1 mph - N/A   Clear
6:53 AM 46.9 °F - 37.0 °F 68% 30.20 in 10.0 mi ESE 6.9 mph - N/A   Clear
7:53 AM 50.0 °F - 39.9 °F 68% 30.20 in 10.0 mi SE 6.9 mph - N/A   Clear
8:53 AM 55.0 °F - 39.0 °F 55% 30.19 in 10.0 mi SE 9.2 mph - N/A   Clear
9:53 AM 60.1 °F - 39.9 °F 47% 30.17 in 10.0 mi SE 8.1 mph - N/A   Clear
10:53 AM 64.9 °F - 39.0 °F 39% 30.15 in 10.0 mi SE 13.8 mph - N/A   Clear
11:53 AM 66.9 °F - 39.0 °F 36% 30.12 in 10.0 mi SSE 13.8 mph - N/A   Clear
12:53 PM 69.1 °F - 37.9 °F 32% 30.10 in 10.0 mi SSE 17.3 mph 24.2 mph N/A   Clear
1:53 PM 70.0 °F - 37.9 °F 31% 30.09 in 10.0 mi SE 16.1 mph 25.3 mph N/A   Clear
2:53 PM 70.0 °F - 36.0 °F 29% 30.06 in 10.0 mi SSE 20.7 mph 26.5 mph N/A   Clear
3:53 PM 69.1 °F - 39.9 °F 35% 30.05 in 10.0 mi SE 13.8 mph 21.9 mph N/A   Partly Cloudy
4:53 PM 66.9 °F - 41.0 °F 39% 30.04 in 10.0 mi SSE 18.4 mph 28.8 mph N/A   Overcast
5:53 PM 63.0 °F - 42.1 °F 46% 30.04 in 10.0 mi SSE 17.3 mph 27.6 mph N/A   Overcast
6:53 PM 57.0 °F - 51.1 °F 81% 30.04 in 10.0 mi South 13.8 mph - 0.00 in Rain Light Rain
7:51 PM 53.6 °F - 53.6 °F 100% 30.02 in 7.0 mi SSE 12.7 mph - 0.04 in Rain Light Rain
7:53 PM 54.0 °F - 53.1 °F 97% 30.02 in 6.0 mi SSE 11.5 mph - 0.04 in Rain Light Rain
8:21 PM 53.6 °F - 53.6 °F 100% 30.00 in 6.0 mi SE 12.7 mph - 0.02 in Rain Light Rain
8:45 PM 53.6 °F - 53.6 °F 100% 29.99 in 4.0 mi SE 13.8 mph - 0.07 in Rain Rain
8:53 PM 54.0 °F - 54.0 °F 100% 29.99 in 5.0 mi SE 13.8 mph - 0.09 in Rain Rain
9:53 PM 54.0 °F - 54.0 °F 100% 29.97 in 10.0 mi SSE 10.4 mph - 0.06 in Rain Light Rain
10:31 PM 53.6 °F - 53.6 °F 100% 29.96 in 10.0 mi SSE 16.1 mph 21.9 mph 0.01 in   Overcast
10:49 PM 53.6 °F - 53.6 °F 100% 29.96 in 10.0 mi SSE 11.5 mph - 0.01 in   Overcast
10:53 PM 53.1 °F - 53.1 °F 100% 29.95 in 10.0 mi SSE 11.5 mph - 0.01 in   Overcast
11:02 PM 53.6 °F - 53.6 °F 100% 29.95 in 10.0 mi SSE 11.5 mph - N/A   Overcast
11:53 PM 53.1 °F - 52.0 °F 96% 29.95 in 10.0 mi South 11.5 mph - N/A   Overcast